Location: Boleita
(10.4833°N, 66.8167°W)
Time: 02:27:13
(UTC+00:00)

Meteor 2-5 Rocket - Pass Details

Date: 08 November 2025
Orbit: 832 x 910 km, 81.2° (Epoch: 09 December)

Event Time Altitude Azimuth Distance (km) Brightness Sun altitude
Rises 08:48:35 0° 182° (S) 3,524 7.1 -22.6°
Reaches altitude 10° 08:51:02 10° 181° (S) 2,587 6.4 -22.0°
Maximum altitude 08:56:57 80° 95° (E) 925 3.9 -20.6°
Drops below altitude 10° 09:02:52 10° 8° (N) 2,583 6.2 -19.2°
Sets 09:05:19 0° 8° (N) 3,518 6.9 -18.6°
